Meath Environmental Platform

Observations for Trim Market St

Time AQI Temp °C Hum % Pres Pa CO μg/m³ H₂S μg/m³ NO μg/m³ NO₂ μg/m³ O₃ μg/m³ SO₂ μg/m³ PM1 μg/m³ PM2.5 μg/m³ PM10 μg/m³
Tuesday 18 August 2026
11:09 2 23.2 55 56,772 0 0 3.38 12.92 71.85 0 0 2.23 3.96
11:06 2 23.1 55 57,078 0.04 0 3.06 16.95 66.29 0 0.71 2.73 3.96
11:02 2 22.9 55 57,140 0 0 2.6 10.76 77.63 0 0 1.73 1.81
10:58 2 22.9 55 56,997 0.12 0 2.75 12.12 74.9 0 0 1.75 2.5
10:57 2 23 54 56,868 0 0 2.7 11.48 75.47 0 0 2.26 2.49
10:56 2 23 54 56,692 0 0 2.45 9.1 74.03 0 0 2.27 2.48
10:55 2 23.1 54 56,532 0 0 2.3 9.97 69.36 0 0 1.77 1.95
10:54 2 23.1 54 56,401 0 0 2.38 7.51 62.54 0 0 1.78 1.95
10:53 2 23.2 54 56,276 0 0 2.4 8.42 68.12 0 0 1.79 1.96
10:51 2 23.3 54 56,062 0 0 2.5 6.16 60.4 0 0 1.79 1.96
10:50 2 23.3 54 56,046 0 0 2.66 6.17 56.67 0 0 1.78 1.96
10:49 2 23.4 54 56,038 0 0 2.66 6.09 60.76 0 0 2.29 2.46
10:47 2 23.5 54 55,969 0 0 2.78 7.27 57.9 0 0 2.3 2.45
10:46 2 23.5 54 55,956 0 0 2.6 8.76 59.06 0 0 1.79 2.45
10:44 2 23.6 54 55,920 0 0 2.71 5.43 56.85 0 0 1.79 2.45
10:43 2 23.6 54 55,893 0 0 2.68 6.5 61.15 0 0 1.79 1.97
10:40 2 23.7 53 55,777 0 0 2.62 5.78 56.51 0 0 1.8 1.98
10:39 2 23.8 53 55,718 0 0 2.51 5.57 49.16 0 0 1.8 1.98
10:38 2 23.8 53 55,696 0 0 2.39 6.8 57.02 0 0 1.8 1.98
10:37 2 23.8 53 55,672 0 0 2.44 10.01 33.9 0 0 2.31 2.45